FENGYUN 1C DEB, 30171

Orbit data source: Space-Track

FENGYUN 1C DEB, 30171 is space debris in SSO originally from a launch on Mon, 10 May 1999 UTC launched from the Taiyaun Space Center, China (TSC). Fengyun 1C debris stems from the Chinese weather satellite Fengyun-1C, which was intentionally destroyed by a Chinese anti-satellite missile in 2007. This event dramatically increased the amount of space debris, with thousands of trackable fragments posing hazards to satellites and human spaceflight. The Fengyun 1C debris cloud has become a focal point in discussions about space sustainability and the need for international regulations to prevent the creation of new debris.

Loading next visibility...
Identifier
30171, 1999-025UC
Orbit
SSO
Country
Flag of CNCN / PRC
Related business
Manufacturer
Unknown
Mission
Spacecraft
Bus & Motor
Unknown
Mass
Unknown
Launch date (UTC)
1999-05-10 (27 years ago)
Launch vehicle
Unknown
Launch site
Taiyaun Space Center, China (TSC)
Object type
Payload
Rocket body
Debris
Shape & HBR
Unknown shape, 0.1 m
Radar Cross Section
Small (<0.1 m²)

Expand to show TLE details & history
Last TLE update: 1 day ago

TLE from 1 day ago
0 FENGYUN 1C DEB
1 30171U 99025UC  26257.04850358  .00000503  00000-0  33683-3 0  9996
2 30171  98.3738  95.8320 0184179 216.0341 142.8293 13.97026667  1069
Epoch: 2026-09-14T01:09Z
TLE epoch observation values (Epoch: 2026-09-14T01:09:50.709Z)
Latitude
-0.00005°
Longitude
85.33633°
Altitude
1,014.781 km
Speed
7.29 km/s
True Right ascension
06h 23m 19s
True Declination
0° 00' 00"
Sunlit
Object was in daylight at epoch
Visualization orbit readout
Latitude
Unknown
Longitude
Unknown
Altitude
Unknown
Speed
Unknown
Apparent Right ascension
Unknown
Apparent Declination
Unknown
Sunlit
N/A
Visualization observer readout
Local Sidereal Time
02:57:49
Azimuth
Unknown
Elevation
Unknown
Doppler factor
Unknown
Orbital elements
Apogee altitude
1,035.353 km
Perigee altitude
767.21 km
Semi-major axis
7,279.419 km
Eccentricity
0.01842
Inclination
98.3738°
RAAN
95.832°
Arg. of periapsis
216.0341°
True anomaly
144.08138°
Mean anomaly
142.8293°
Eccentric anomaly
143.45762°
Mean motion
3.49461 °/min
Orbital period
103.02 mins
BSTAR
0.00033683
Loading maneuver chart data...
Computing Atmospheric mass density...
Loading historical data...
Loading historical data...
Loading historical data...
Loading historical data...
Loading historical data...
Loading historical data...
Loading historical data...

Documentation

Showing up to 5 results
|